Location: Innsbruck
(47.2657°N, 11.3914°E)
Time: 20:35:52
(UTC+01:00)

BEESAT 2 - Pass Details

Date: 04 December 2021
Orbit: 498 x 513 km, 64.9° (Epoch: 24 January)

Event Time Altitude Azimuth Distance (km) Brightness Sun altitude
Exits shadow 06:53:52 - 316° (NW) 1,812 ? -8.3°
Reaches altitude 10° 06:54:01 10° 315° (NW) 1,750 ? -8.3°
Maximum altitude 06:57:51 55° 238° (WSW) 624 ? -7.7°
Drops below altitude 10° 07:01:39 10° 160° (SSE) 1,732 ? -7.1°
Sets 07:03:50 0° 156° (SSE) 2,611 ? -6.8°
